Retour au catalogue

SL-8 DEB

ActifPO
NORAD 24818·DEBRIS·🇷🇺 Russia

Lancé Sep 13, 1977 depuis Plesetsk Cosmodrome

Loading…

Prochains Passages (prochaines 24 heures)

TLE

FraisSource: Space-Track

Époque: Sep 14, 2026, 08:45 UTC

1 24818U 77087C   26257.36522950  .00000309  00000-0  27028-3 0  9990
2 24818  82.9690  26.9754 0033125 164.3915 224.5270 13.82324689461958

Suivez SL-8 DEB en temps réel avec AllMySat

Download on the App Store